Weather History for Chihuahua, Mexico

Change the Weather History Date:

Thursday, February 20, 2014

  Actual Average Record
Temperature  
Mean Temperature 54 °F -  
Max Temperature 78 °F 72 °F 84 °F (2011)
Min Temperature 29 °F 40 °F 28 °F (2002)
Degree Days  
Heating Degree Days 12    
Growing Degree Days 4 (Base 50)    
Moisture  
Dew Point 20 °F    
Average Humidity 18    
Maximum Humidity 32    
Minimum Humidity 10    
Precipitation  
Precipitation 0.00 in - - ()
Sea Level Pressure  
Sea Level Pressure 29.92 in    
Wind  
Wind Speed 6 mph ()    
Max Wind Speed 20 mph    
Max Gust Speed -    
Visibility 8.5 miles    
Events      
Averages and records for this station are not official NWS values.
T = Trace of Precipitation, MM = Missing Value Source: Averaged Metar Reports

Daily Weather History Graph

Daily Weather History Graph

Search for Another Location

Airport:

Trip Planner

Search our weather history database for the weather conditions in past years. The results will help you decide how hot, cold, wet, or windy it might be!

Date:

Astronomy

Feb. 20, 2014 Rise Set
Actual Time 6:37 AM MST 5:57 PM MST
Civil Twilight 6:13 AM MST 6:21 PM MST
Nautical Twilight 5:46 AM MST 6:49 PM MST
Astronomical Twilight 5:18 AM MST 7:16 PM MST
Moon 11:23 PM MST (2/20) 9:51 AM MST (2/20)
Length of Visible Light 12h 07m
Length of Day
11h 20m
Waning Gibbous, 70% of the Moon is Illuminated
Feb 20
Waning Gibbous
Feb 22
Last Quarter
Mar 1
New
Mar 8
First Quarter
Mar 16
Full

Hourly Weather History & Observations

Time (MST) Temp. Windchill Dew Point Humidity Pressure Visibility Wind Dir Wind Speed Gust Speed Precip Events Conditions
1:50 AM 65 °F - 25 °F 12% 29.56 in 1 mi West 8.9 mph - -   Clear
4:40 AM 59.0 °F - 21.2 °F 23% 29.71 in 10.0 mi Calm Calm - N/A   Scattered Clouds
4:50 AM 57 °F - 28 °F 22% 29.63 in 1 mi WNW 11.2 mph - -   Mostly Cloudy
5:42 AM 48.2 °F - 17.6 °F 30% 30.00 in 10.0 mi South 4.6 mph - N/A   Scattered Clouds
6:45 AM 46.4 °F 44.3 °F 17.6 °F 32% 30.04 in 10.0 mi West 4.6 mph - N/A   Mostly Cloudy
7:40 AM 55.4 °F - 19.4 °F 25% 29.85 in 10.0 mi West 3.5 mph - N/A   Mostly Cloudy
7:45 AM 63 °F - 29 °F 16% 29.77 in 6 mi NNW 2.2 mph - -   Clear
8:40 AM 64.4 °F - 21.2 °F 19% 30.09 in 10.0 mi North 3.5 mph - N/A   Mostly Cloudy
9:40 AM 68.0 °F - 21.2 °F 17% 30.10 in 10.0 mi Calm Calm - N/A   Scattered Clouds
10:40 AM 71.6 °F - 19.4 °F 14% 29.86 in 10.0 mi WNW 4.6 mph - N/A   Scattered Clouds
10:50 AM 74 °F - 30 °F 10% 29.55 in 6 mi North 4.5 mph - -   Clear
11:40 AM 73.4 °F - 21.2 °F 14% 30.08 in 10.0 mi NNE 11.5 mph - N/A   Scattered Clouds
12:42 PM 75.2 °F - 21.2 °F 13% 30.05 in 10.0 mi NNE 11.5 mph - N/A   Scattered Clouds
1:49 PM 77.0 °F - 19.4 °F 12% 29.82 in 10.0 mi NNE 9.2 mph - N/A   Mostly Cloudy
2:44 PM 78.8 °F - 19.4 °F 11% 30.03 in 10.0 mi ENE 19.6 mph - N/A   Mostly Cloudy
3:44 PM 75.2 °F - 19.4 °F 12% 30.03 in 10.0 mi NE 10.4 mph - N/A   Mostly Cloudy
4:49 PM 73.4 °F - 17.6 °F 12% 29.81 in 10.0 mi NNE 11.5 mph - N/A   Mostly Cloudy
5:40 PM 69.8 °F - 17.6 °F 14% 30.06 in 10.0 mi NNE 10.4 mph - N/A   Mostly Cloudy
6:40 PM 60.8 °F - 17.6 °F 19% 30.10 in 10.0 mi NNE 8.1 mph - N/A   Scattered Clouds
7:40 PM 63 °F - - % 29.79 in 1 mi ENE 2.2 mph - -   Clear
7:48 PM 57.2 °F - 14.0 °F 18% 29.99 in 10.0 mi North 6.9 mph - N/A   Clear
8:40 PM 50.0 °F - 14.0 °F 24% 30.13 in 10.0 mi SW 3.5 mph - N/A   Clear
9:40 PM 46.4 °F 45.2 °F 10.4 °F 23% 30.14 in 10.0 mi South 3.5 mph - N/A   Clear
10:46 PM 42.8 °F 38.0 °F 10.4 °F 27% 29.98 in 10.0 mi South 8.1 mph - N/A   Clear